Location: Burleson Alternative School
(32.5290°N, 97.3406°W)
Time: 10:58:20
(UTC+00:00)

Vanguard 2 Rocket - Pass Details

Date: 10 November 2025
Orbit: 553 x 3287 km, 32.9° (Epoch: 07 December)

Event Time Altitude Azimuth Distance (km) Brightness Sun altitude
Exits shadow 09:52:53 20° 206° (SSW) 4,914 10.3 -38.5°
Drops below altitude 10° 10:02:49 10° 175° (S) 6,145 11.1 -36.4°
Sets 10:09:54 0° 161° (SSE) 7,252 11.7 -34.9°
